Home   Weather   Grenoble   Past weeks

Flag for France Past Weather in Grenoble, Rhône-Alpes, France — Yesterday and Last 2 Weeks

Now
55 °F

Passing clouds.


Feels Like: 55 °F
Forecast: 37 / 67 °F
Wind: 3 mph from Southeast

Location: Grenoble / St. Geoirs

Current Time: Apr 29, 2017 at 1:42:07 pm

Latest Report: Apr 29, 2017 at 1:00 pm


Visibility: N/A

Pressure: 30.01 "Hg

Humidity: 36%

Dew Point: 28 °F

Location of GrenobleLocation

Past Weather in Grenoble — Graph

°F

Grenoble Temperature Yesterday

Maximum temperature yesterday: 50 °F (at 3:00 pm)
Minimum temperature yesterday: 36 °F (at 10:30 pm)
Average temperature yesterday: 42 °F

High & Low Weather Summary for the Past Weeks

 TemperatureHumidityPressure
High70 °F (Apr 24, 2:00 pm)93% (Apr 17, 7:30 am)30.42 "Hg (Apr 17, 7:30 am)
Low27 °F (Apr 20, 7:00 am)22% (Apr 22, 3:30 pm)29.68 "Hg (Apr 25, 8:00 pm)
Average47 °F63%30.10 "Hg
* Reported Apr 14 12:00 pm — Apr 29 12:30 pm, Grenoble, Weather by CustomWeather, © 2017

Note: Actual official high and low records may vary slightly from our data, if they occured in-between our weather recording intervals... More about our weather records

Advertising

Grenoble Weather History for the Previous 24 Hours

Scroll right to see more
 ConditionsComfort  
Time TempWeatherWind HumidityBarometerVisibility
12:30 pm
Sat, Apr 29
54 °FPassing clouds.7 mph44%30.01 "HgN/A
12:00 pm52 °FPassing clouds.7 mph47%30.01 "HgN/A
11:30 am52 °FPassing clouds.8 mph50%30.01 "HgN/A
11:00 am50 °FPassing clouds.8 mph50%30.04 "HgN/A
10:30 am48 °FPassing clouds.9 mph58%30.04 "HgN/A
9:30 am46 °FPassing clouds.7 mph62%30.04 "HgN/A
9:00 am45 °FPassing clouds.6 mph71%30.04 "HgN/A
8:30 am39 °FSunny.6 mph81%30.04 "Hg10 mi
8:00 am37 °FSunny.5 mph87%30.04 "Hg10 mi
7:30 am32 °FSunny.5 mph93%30.04 "Hg10 mi
7:00 am28 °FSunny.6 mph93%30.04 "Hg10 mi
6:30 am28 °FSunny.6 mph93%30.04 "Hg10 mi
6:00 am30 °FClear.6 mph86%30.04 "Hg10 mi
5:30 am30 °FClear.3 mph93%30.04 "Hg10 mi
5:00 am30 °FClear.5 mph93%30.04 "Hg10 mi
4:30 am30 °FClear.5 mph86%30.04 "Hg10 mi
4:00 am30 °FClear.6 mph86%30.04 "Hg10 mi
3:30 am30 °FClear.3 mph86%30.04 "Hg10 mi
3:00 am30 °FClear.5 mph93%30.04 "Hg10 mi
2:30 am32 °FPassing clouds.6 mph87%30.04 "HgN/A
2:00 am30 °FClear.3 mph93%30.07 "Hg10 mi
1:30 am30 °FClear.2 mph93%30.07 "Hg10 mi
1:00 am32 °FClear.2 mph87%30.07 "Hg10 mi
12:30 am34 °FClear.3 mph87%30.07 "Hg10 mi
12:00 am34 °FClear.3 mph81%30.07 "Hg10 mi
11:30 pm
Fri, Apr 28
36 °FClear.3 mph81%30.07 "Hg10 mi
11:00 pm36 °FClear.5 mph75%30.07 "Hg10 mi
10:30 pm36 °FPassing clouds.3 mph75%30.07 "HgN/A
10:00 pm37 °FClear.2 mph70%30.07 "Hg10 mi
9:30 pm39 °FClear.5 mph75%30.04 "Hg10 mi
9:00 pm41 °FClear.5 mph70%30.04 "Hg10 mi
8:30 pm45 °FPassing clouds.6 mph61%30.04 "HgN/A
8:00 pm48 °FCloudy.9 mph50%30.04 "HgN/A
7:30 pm50 °FPartly sunny.8 mph47%30.04 "HgN/A
7:00 pm46 °FBroken clouds.9 mph50%30.04 "HgN/A
6:30 pm50 °FPartly sunny.12 mph47%30.01 "HgN/A
6:00 pm48 °FScattered clouds.6 mph54%30.04 "HgN/A
5:30 pm50 °FBroken clouds.7 mph47%30.01 "HgN/A
5:00 pm50 °FPartly sunny.9 mph54%30.01 "HgN/A
4:30 pm48 °FMostly cloudy.13 mph46%30.01 "HgN/A
4:00 pm48 °FBroken clouds.14 mph50%30.01 "HgN/A
3:00 pm50 °FBroken clouds.15 mph43%30.01 "HgN/A
2:00 pm46 °FBroken clouds.14 mph57%30.01 "HgN/A
1:30 pm48 °FPartly sunny.13 mph54%30.01 "HgN/A
1:00 pm46 °FBroken clouds.14 mph57%30.01 "HgN/A
Weather by CustomWeather, © 2017

See weather overviewHow to use our weather pages